OBJECT A, 60235

Orbit data source: Space-Track

You're viewing an Uncataloged Satellite

Recently launched and/or uncataloged satellites may have evolving metadata. Metadata may include but not limited to: Owner, Maufacturer, Bus, Motor, and Mission.

OBJECT A, 60235 is a satellite in LEO that was launched on Tue, 09 Jul 2024 UTC via an ARIANE 62 launch vehicle from the French Guiana (FRGUI). Unknown objects in Earth's orbit typically refer to objects detected orbiting the Earth but have not yet been identified or cataloged. These objects could be anything from previously untracked satellites, spent rocket stages, debris from satellite collisions, or even natural meteoroids temporarily captured by Earth's gravity.

Loading next visibility...
Identifier
60235, 2024-128A
Orbit
LEO
Last TLE update
1 day ago
Origin
Flag of TBDUCB/NASA (TBD)
Manufacturer
UCB
Mission
Amateur Science
Bus & Motor
CUBESAT 3U, Unknown motor
Mass
5 kg wet, 5 kg dry
Launch date (UTC)
2024-07-09 (10 months ago)
Launch vehicle
ARIANE 62
Launch site
French Guiana (FRGUI)
Object type
Unknown
Shape & HBR
Box, 0.3 m
Radar Cross Section
0.035 m², Small (<0.1 m²)

Expand to show TLE details & history

TLE from 1 day ago
0 OBJECT A
1 60235U 24128A   25118.88687848  .00004420  00000-0  37450-3 0  9999
2 60235  61.9952 229.3774 0051977  39.7021 320.7854 14.98480041 43864
Epoch: 2025-04-28T21:17Z
Definitive object data (Epoch: 2025-04-28T21:17:06.3Z)
Latitude
-0.00004°
Longitude
53.00667°
Altitude
545.446 km
Speed
7.605 km/s
True Right ascension
15h 17m 30s
True Declination
0° 00' 00"
Sunlit
Object was in full shadow at TLE epoch
Visualization TLE readout
Latitude
29.84817°
Longitude
66.72433°
Altitude
538.18 km
Speed
7.616 km/s
Apparent Right ascension
17h 58m 51s
Apparent Declination
-3° 54' 48"
Sunlit
Object is in full shadow
Visualization observer readout
Local Sidereal Time
08:12:03
Azimuth
48.615° ENE
Elevation
-43.104°
Doppler factor
1
Orbital elements
Apogee altitude
606.641 km
Perigee altitude
534.406 km
Semi-major axis
6,948.66 km
Eccentricity
0.0051977
Inclination
61.9952°
RAAN
229.3774°
Arg. of periapsis
39.7021°
True anomaly
320.40694°
Mean anomaly
320.7854°
Eccentric anomaly
320.59636°
Mean motion
3.74707 °/min
BSTAR
0.0003745
Orbital period
96.08 mins
Loading maneuver chart data...
Loading SW <> Apogee altitude chart data...
Loading historical data...
Loading historical data...
Loading historical data...
Loading historical data...
Loading historical data...
Loading historical data...
Loading historical data...

OBJECT A Visibility forecast

Observer location: undefined°, undefined°

Span
Click to sort rows by Start time (UTC) header in descending order
Start Az.
Max El. time (UTC)
Max El. Az.
Max El.
End time (UTC)
End Az.
6 mins2025-04-30 08:39:39.789Z190.667° SSW2025-04-30 08:42:39.789Z120.727° SE35.983°2025-04-30 08:45:39.789Z51.534° ENE
4 mins2025-04-30 10:20:39.789Z292.748° NW2025-04-30 10:21:39.789Z311.584° NW17.932°2025-04-30 10:24:39.789Z2.814° NNE
6 mins2025-04-30 17:03:39.789Z343.264° N2025-04-30 17:05:39.789Z29.35° NE36.799°2025-04-30 17:09:39.789Z125.021° SE
|